Simultaneous Nadir Overpasses (SNOs) Predictions

Prediction of SNOs between LANDSAT-8 and METOP-A Satellite Orbit:

Table of predicted SNOs for the next 14.0 days since TLE Epoch: 8/31/2019
Index Date (LANDSAT-8) Time (LANDSAT-8) Lat,Lon (LANDSAT-8) SZA (LANDSAT-8 ) Date (METOP-A) Time (METOP-A) Lat,Lon (METOP-A) SZA (METOP-A ) Distance(km) Time Diff (sec)
1 08/31/2019 18:32:37 -81.47, 128.32 104.40 08/31/2019 18:32:06 -81.47, 128.45 104.39 2.18 31
2 08/31/2019 19:22:03 81.47, -63.94 75.63 08/31/2019 19:22:46 81.47, -63.95 75.65 0.28 43
3 09/03/2019 14:06:53 -81.47,-165.30 103.36 09/03/2019 14:06:31 -81.47,-165.30 103.37 0.67 22
4 09/03/2019 14:56:19 81.47, 2.41 76.67 09/03/2019 14:57:11 81.47, 2.26 76.68 2.44 52
5 09/06/2019 09:41:07 -81.48, -98.54 102.26 09/06/2019 09:40:54 -81.47, -98.67 102.28 2.37 13
6 09/06/2019 10:30:34 81.47, 68.74 77.71 09/06/2019 10:31:34 81.47, 68.86 77.76 2.07 60
7 09/09/2019 05:15:23 -81.48, -32.20 101.19 09/09/2019 05:15:18 -81.47, -32.06 101.18 2.32 5
8 09/09/2019 06:04:49 81.48, 135.46 78.83 09/09/2019 06:05:58 81.47, 135.45 78.85 0.81 69
9 09/12/2019 00:00:12 81.47,-133.55 79.86 09/11/2019 23:59:03 81.47,-133.69 79.82 2.47 69




NCC Satellite Simultaneous Nadir Overpasses (SNOs) Prediction Service
